Zurück zum Katalog

SHEFFER YU.P.

AktivNavigationSSO
NORAD 57208·PAYLOAD·🇷🇺 Russia
Dieser Satellitenname wurde noch nicht durch offizielle Quellen bestätigt.

Gestartet Jun 27, 2023 von Vostochny Cosmodrome

Loading…

Nächste Überflüge (nächste 24 Stunden)

TLE

AktuellSource: Space-Track

Epoche: Sep 14, 2026, 12:48 UTC

1 57208U 23091AU  26257.53400989  .00017810  00000-0  41946-3 0  9991
2 57208  97.5006 330.8659 0007087 104.8404 255.3628 15.41975763178542

Verfolge SHEFFER YU.P. in Echtzeit mit AllMySat

Download on the App Store